KIND Airport Diagram

We have created a template for each of the higher traffic airports in the vZID airspace. They include KCMH, KCRW, KCVG, KDAY, KIND, KLEX and KSDF. You wil find usefull information including the airport diagram, weather, and specific airport procedures.

KIND Weather

[Source: ADDS]
METAR
KIND 172154Z 28011KT 10SM FEW038 SCT090 SCT250 32/23 A2993 RMK AO2 SLP125 CB DSNT NE-E MOV SE T03170228 =
KIND 172028Z 1720/1824 29008KT P6SM SCT035 BKN090 FM180900 VRB03KT P6SM FEW050 SCT250
TAF
KIND 172028Z 1720/1824 29008KT P6SM SCT035 BKN090 FM180900 VRB03KT P6SM FEW050 SCT250 =

KIND Operations

 Calm Wind Configuration is runways 23L/R, up to and including 10kts.

Runway 23L typically departs South and East, Runway 23R typically departs North and West.

FedEx pilots should expect runway 23L or 5R.

Contraflow (noise abatement) procedures from 2200L to 0600L, landing Runway 5R, departing Runway 23R, weather permitted.

New Scenery is available at FlightSim.com and Blueprint Simulations. On initial contact, arriving aircraft should notify the the controller if their scenery has the Midfield Terminal.

FBOs: Signature is near taxiway D and Millionaire is near taxiway A, both are North of taxiway M.

 

JSN Epic template designed by JoomlaShine.com